EW6103 Weather Reports


time (UTC)temp
C
wind
direction
speed
KPH
gust
KPH
rain 1hr
cm
rain 24hr
cm
rain mn
cm
humidity
%
barometer
mb
20260831141011 25 270 12.9 19.3 0.00 0.36 0.36 69 1013.4
20260831140010 24 270 16.1 20.9 0.03 0.36 0.36 70 1013.5
20260831135011 23 270 8.0 14.5 0.03 0.36 0.36 79 1013.6
20260831134015 22 270 8.0 14.5 0.03 0.36 0.36 79 1013.8
20260831133020 22 135 4.8 12.9 0.03 0.36 0.36 79 1013.8
20260831131013 21 135 6.4 8.0 0.03 0.36 0.36 83 1014.0
20260831130013 22 135 8.0 14.5 0.00 0.33 0.33 77 1014.0
20260831125032 23 270 6.4 11.3 0.00 0.33 0.33 79 1013.8
20260831124008 22 270 6.4 9.7 0.00 0.33 0.33 78 1014.1
20260831123027 21 270 4.8 6.4 0.00 0.33 0.33 82 1014.1
20260831122015 22 270 6.4 11.3 0.00 0.33 0.33 81 1014.1
20260831121015 21 135 3.2 6.4 0.00 0.33 0.33 86 1014.3
20260831120011 20 225 1.6 4.8 0.00 0.33 0.33 87 1014.4
20260831115008 19 135 1.6 6.4 0.00 0.33 0.33 86 1014.6
20260831114006 19 225 0.0 3.2 0.00 0.33 0.33 87 1014.7
20260831112006 18 225 1.6 3.2 0.00 0.33 0.33 89 1014.7
20260831111007 19 225 4.8 6.4 0.00 0.33 0.33 90 1014.7
20260831110123 18 180 3.2 4.8 0.00 0.33 0.33 88 1014.8
20260831104007 19 270 3.2 6.4 0.00 0.33 0.33 88 1014.7
20260831103007 19 180 3.2 6.4 0.00 0.33 0.33 88 1014.6
20260831102009 18 180 1.6 6.4 0.00 0.33 0.33 91 1014.6
20260831101006 18 135 0.0 3.2 0.00 0.33 0.33 92 1014.8
20260831100013 17 180 4.8 6.4 0.00 0.33 0.33 94 1014.8
20260831095009 17 180 1.6 4.8 0.00 0.33 0.33 96 1015.1
20260831094006 16 180 0.0 4.8 0.03 0.33 0.33 96 1015.2
20260831093012 16 225 3.2 6.4 0.03 0.33 0.33 96 1015.0
20260831092010 16 180 1.6 4.8 0.08 0.33 0.33 96 1015.0
20260831090012 16 90 1.6 4.8 0.33 0.33 0.33 97 1014.3
20260831085006 16 45 1.6 4.8 0.33 0.33 0.33 97 1014.3
20260831084009 16 270 3.2 8.0 0.30 0.30 0.30 96 1014.5
20260831083008 16 180 4.8 9.7 0.30 0.30 0.30 96 1014.6
20260831082006 16 270 6.4 14.5 0.25 0.25 0.25 96 1014.9
20260831081009 16 270 11.3 17.7 0.20 0.20 0.20 95 1015.1
20260831080011 18 225 6.4 12.9 0.00 0.00 0.00 89 1014.5
20260831075007 18 45 0.0 1.6 0.00 0.00 0.00 86 1012.9
20260831072007 18 45 1.6 4.8 0.00 0.00 0.00 84 1012.5
20260831070015 17 45 0.0 1.6 0.00 0.00 0.00 86 1012.5
20260831065007 17 0 1.6 4.8 0.00 0.00 0.00 87 1012.8
20260831064009 17 0 1.6 4.8 0.00 0.00 0.00 87 1012.8
20260831063008 17 0 1.6 3.2 0.00 0.00 0.00 88 1012.8
20260831062005 17 90 0.0 1.6 0.00 0.00 0.00 89 1012.9
20260831061005 16 90 0.0 3.2 0.00 0.00 0.00 90 1013.0
20260831060011 16 90 0.0 1.6 0.00 0.00 0.00 93 1013.0
20260831053008 15 90 0.0 1.6 0.00 0.00 0.00 95 1013.1
20260831051009 14 90 0.0 1.6 0.00 0.00 0.00 95 1013.0
20260831050014 14 180 0.0 0.0 0.00 0.00 0.00 96 1013.3
20260831045008 13 180 0.0 0.0 0.00 0.00 0.00 96 1013.3
20260831044006 13 180 0.0 1.6 0.00 0.00 0.00 96 1013.3
20260831043007 13 45 0.0 4.8 0.00 0.00 0.00 96 1013.5
20260831042010 13 45 0.0 1.6 0.00 0.00 0.00 96 1013.5
20260831035007 13 0 0.0 1.6 0.00 0.00 0.00 96 1013.7
20260831034005 13 0 0.0 1.6 0.00 0.00 0.00 96 1013.7
20260831033008 12 0 0.0 1.6 0.00 0.00 0.00 96 1013.9
20260831032006 13 0 0.0 0.0 0.00 0.00 0.00 96 1013.9
20260831031006 13 135 0.0 1.6 0.00 0.00 0.00 95 1013.9
20260831030013 13 135 0.0 1.6 0.00 0.00 0.00 95 1013.9
20260831025008 13 180 0.0 1.6 0.00 0.00 0.00 95 1014.0
20260831024006 13 90 0.0 0.0 0.00 0.00 0.00 95 1014.0
20260831023007 13 90 0.0 1.6 0.00 0.00 0.00 95 1014.0
20260831022009 13 90 0.0 3.2 0.00 0.00 0.00 95 1014.0
20260831021011 13 135 0.0 1.6 0.00 0.00 0.00 95 1014.1
20260831015006 13 45 0.0 0.0 0.00 0.00 0.00 94 1014.0
20260831014007 13 45 0.0 1.6 0.00 0.00 0.00 94 1014.0
20260831013011 14 45 0.0 1.6 0.00 0.00 0.00 94 1014.2
20260831011006 14 0 1.6 4.8 0.00 0.00 0.00 93 1014.2
20260831010013 14 0 0.0 1.6 0.00 0.00 0.00 94 1014.3
20260831005006 14 135 0.0 1.6 0.00 0.00 0.00 94 1014.3
20260831004008 14 135 0.0 3.2 0.00 0.00 0.00 94 1014.2
20260831003007 14 180 0.0 1.6 0.00 0.00 0.00 94 1014.3
20260831001006 14 180 0.0 1.6 0.00 0.00 0.00 93 1014.3
20260831000012 14 90 0.0 1.6 0.00 0.00 0.00 93 1014.4
20260830235005 14 0 0.0 0.0 0.00 0.00 0.00 93 1014.4
20260830233009 14 0 0.0 1.6 0.00 0.00 0.00 92 1014.5
20260830232009 15 0 0.0 3.2 0.00 0.00 0.00 91 1014.4
20260830231006 14 270 0.0 1.6 0.00 0.00 0.00 91 1014.5
20260830225008 15 135 0.0 1.6 0.00 0.00 0.00 90 1014.3
20260830224007 15 0 0.0 0.0 0.00 0.00 0.00 89 1014.4
20260830223008 15 0 0.0 0.0 0.00 0.00 0.00 89 1014.5
20260830222005 15 0 0.0 0.0 0.00 0.00 0.00 88 1014.5
20260830221011 16 0 0.0 1.6 0.00 0.00 0.00 86 1014.4
20260830220013 16 45 0.0 3.2 0.00 0.00 0.00 85 1014.4
20260830215006 16 225 0.0 3.2 0.00 0.00 0.00 85 1014.4
20260830214007 16 180 3.2 6.4 0.00 0.00 0.00 83 1014.2
20260830213007 16 135 0.0 3.2 0.00 0.00 0.00 86 1014.4
20260830212005 16 0 1.6 3.2 0.00 0.00 0.00 86 1014.2
20260830211008 16 45 0.0 3.2 0.00 0.00 0.00 86 1014.2
20260830210009 16 45 0.0 1.6 0.00 0.00 0.00 86 1014.1
20260830204006 16 45 0.0 1.6 0.00 0.00 0.00 85 1014.0
20260830203007 16 45 0.0 1.6 0.00 0.00 0.00 83 1013.9
20260830202006 17 45 0.0 1.6 0.00 0.00 0.00 83 1013.9
20260830201005 17 45 0.0 0.0 0.00 0.00 0.00 82 1013.9
20260830195006 17 45 0.0 0.0 0.00 0.00 0.00 81 1013.8
20260830194008 17 45 0.0 0.0 0.00 0.00 0.00 81 1013.8
20260830193008 17 45 0.0 0.0 0.00 0.00 0.00 83 1013.8
20260830192006 17 45 0.0 1.6 0.00 0.00 0.00 82 1013.6
20260830191006 18 45 0.0 0.0 0.00 0.00 0.00 80 1013.6
20260830185007 18 45 0.0 1.6 0.00 0.00 0.00 77 1013.6
20260830184006 18 45 0.0 3.2 0.00 0.00 0.00 76 1013.5
20260830183008 19 45 0.0 3.2 0.00 0.00 0.00 74 1013.4
20260830180017 20 180 0.0 3.2 0.00 0.00 0.00 70 1012.8
20260830175005 21 0 3.2 4.8 0.00 0.00 0.00 69 1012.8
20260830173007 22 180 1.6 3.2 0.00 0.00 0.00 65 1012.7
20260830171005 23 270 3.2 4.8 0.00 0.00 0.00 61 1012.5
20260830170011 23 270 6.4 8.0 0.00 0.00 0.00 58 1012.3
20260830164010 25 270 11.3 14.5 0.00 0.00 0.00 52 1012.3
20260830163011 25 270 9.7 17.7 0.00 0.00 0.00 48 1012.1
20260830161007 26 270 9.7 17.7 0.00 0.00 0.00 49 1011.9
20260830160014 27 270 6.4 11.3 0.00 0.00 0.00 49 1011.8
20260830155011 27 225 8.0 14.5 0.00 0.00 0.00 50 1011.9
20260830153010 26 225 6.4 11.3 0.00 0.00 0.00 51 1012.0
20260830152006 26 270 9.7 16.1 0.00 0.00 0.00 52 1012.1
20260830145006 28 270 9.7 16.1 0.00 0.00 0.00 48 1012.0
20260830144008 28 270 11.3 17.7 0.00 0.00 0.00 48 1012.0
20260830143008 28 225 8.0 17.7 0.00 0.00 0.00 46 1012.1
20260830142007 28 225 8.0 17.7 0.00 0.00 0.00 48 1012.0